{"data":{"norad_id":66014,"epoch":"2026-05-25T02:04:32.000736Z","epoch_age_seconds":61348,"freshness":"FRESH","line1":"1 66014U 25232K   26145.08648149  .00012361  00000+0  42873-3 0  9998","line2":"2 66014  53.1612 108.9511 0000251 206.6954 153.4034 15.30202620 35135","mean_motion":15.3020262,"eccentricity":2.51e-5,"inclination_deg":53.1612,"raan_deg":108.9511,"arg_perigee_deg":206.6954,"mean_anomaly_deg":153.4034,"bstar":0.00042873,"rev_number":3513,"period_min":94.105184580066,"perigee_km":475.03522764215,"apogee_km":475.37926552333,"semimajor_km":6853.3442465827,"source":"CELESTRAK","updated_at":"2026-05-25T13:38:21.015155Z"}}